| time (UTC) | temp F | wind direction | speed knots | gust knots | rain 1hr in | rain 24hr in | rain mn in | humidity % | barometer mb |
| 20260905162744 | 82 | 56 | 0.9 | 5.2 | 0.00 | 0.00 | 0.00 | 50 | 1019.9 |
| 20260905161746 | 82 | 265 | 0.0 | 6.1 | 0.00 | 0.00 | 0.00 | 51 | 1020.0 |
| 20260905155747 | 81 | 262 | 1.7 | 3.5 | 0.00 | 0.00 | 0.00 | 52 | 1020.1 |
| 20260905154736 | 81 | 200 | 2.6 | 5.2 | 0.00 | 0.00 | 0.00 | 54 | 1020.3 |
| 20260905153730 | 80 | 252 | 0.0 | 4.3 | 0.00 | 0.00 | 0.00 | 55 | 1020.2 |
| 20260905152738 | 80 | 191 | 2.6 | 6.1 | 0.00 | 0.00 | 0.00 | 57 | 1020.2 |
| 20260905151732 | 79 | 250 | 2.6 | 4.3 | 0.00 | 0.00 | 0.00 | 57 | 1020.2 |
| 20260905150744 | 79 | 246 | 2.6 | 6.1 | 0.00 | 0.00 | 0.00 | 57 | 1020.2 |
| 20260905145736 | 79 | 239 | 2.6 | 6.1 | 0.00 | 0.00 | 0.00 | 58 | 1020.1 |
| 20260905144745 | 78 | 206 | 4.3 | 7.0 | 0.00 | 0.00 | 0.00 | 60 | 1020.1 |
| 20260905143750 | 77 | 208 | 3.5 | 6.1 | 0.00 | 0.00 | 0.00 | 62 | 1020.1 |
| 20260905142745 | 76 | 205 | 4.3 | 6.1 | 0.00 | 0.01 | 0.00 | 64 | 1020.1 |
| 20260905140733 | 74 | 151 | 1.7 | 5.2 | 0.00 | 0.01 | 0.00 | 68 | 1019.8 |
| 20260905135730 | 73 | 187 | 2.6 | 4.3 | 0.00 | 0.01 | 0.00 | 69 | 1019.8 |
| 20260905134741 | 73 | 184 | 3.5 | 5.2 | 0.00 | 0.01 | 0.00 | 69 | 1019.6 |
| 20260905133738 | 72 | 184 | 2.6 | 5.2 | 0.00 | 0.01 | 0.00 | 69 | 1019.5 |
| 20260905130745 | 72 | 198 | 3.5 | 7.0 | 0.00 | 0.02 | 0.00 | 69 | 1019.3 |
| 20260905125740 | 71 | 173 | 4.3 | 8.7 | 0.00 | 0.02 | 0.00 | 68 | 1019.3 |
| 20260905124732 | 71 | 179 | 4.3 | 7.0 | 0.00 | 0.02 | 0.00 | 68 | 1019.2 |
| 20260905123744 | 71 | 180 | 4.3 | 6.1 | 0.00 | 0.02 | 0.00 | 68 | 1019.0 |
| 20260905122739 | 71 | 177 | 2.6 | 7.0 | 0.00 | 0.03 | 0.00 | 68 | 1019.0 |
| 20260905121734 | 71 | 191 | 4.3 | 8.7 | 0.00 | 0.03 | 0.00 | 68 | 1019.0 |
| 20260905120725 | 72 | 196 | 4.3 | 9.6 | 0.00 | 0.03 | 0.00 | 67 | 1018.9 |
| 20260905115740 | 71 | 175 | 6.1 | 9.6 | 0.00 | 0.03 | 0.00 | 67 | 1018.1 |
| 20260905114733 | 71 | 188 | 4.3 | 7.0 | 0.00 | 0.03 | 0.00 | 64 | 1018.3 |
| 20260905113726 | 71 | 175 | 0.9 | 1.7 | 0.00 | 0.03 | 0.00 | 63 | 1018.0 |
| 20260905112742 | 71 | 175 | 0.9 | 3.5 | 0.00 | 0.03 | 0.00 | 62 | 1017.7 |
| 20260905111740 | 71 | 137 | 1.7 | 3.5 | 0.00 | 0.03 | 0.00 | 63 | 1017.8 |
| 20260905110737 | 71 | 130 | 1.7 | 5.2 | 0.00 | 0.03 | 0.00 | 64 | 1017.6 |
| 20260905105728 | 71 | 141 | 2.6 | 4.3 | 0.00 | 0.03 | 0.00 | 63 | 1017.6 |
| 20260905104729 | 72 | 136 | 1.7 | 2.6 | 0.00 | 0.03 | 0.00 | 63 | 1017.6 |
| 20260905103726 | 72 | 98 | 1.7 | 3.5 | 0.00 | 0.03 | 0.00 | 61 | 1018.4 |
| 20260905102736 | 73 | 78 | 1.7 | 2.6 | 0.00 | 0.03 | 0.00 | 62 | 1018.5 |
| 20260905101725 | 74 | 49 | 0.0 | 1.7 | 0.00 | 0.03 | 0.00 | 61 | 1018.3 |
| 20260905100724 | 74 | 49 | 0.0 | 0.0 | 0.00 | 0.03 | 0.00 | 61 | 1018.2 |
| 20260905095734 | 74 | 49 | 0.0 | 1.7 | 0.00 | 0.03 | 0.00 | 62 | 1018.1 |
| 20260905094732 | 74 | 49 | 0.0 | 2.6 | 0.00 | 0.03 | 0.00 | 62 | 1018.0 |
| 20260905093729 | 74 | 73 | 0.9 | 2.6 | 0.00 | 0.03 | 0.00 | 62 | 1018.0 |
| 20260905092723 | 74 | 61 | 0.9 | 2.6 | 0.00 | 0.03 | 0.00 | 61 | 1017.9 |
| 20260905091733 | 74 | 71 | 0.9 | 1.7 | 0.00 | 0.03 | 0.00 | 60 | 1018.1 |
| 20260905090739 | 75 | 69 | 0.0 | 1.7 | 0.00 | 0.03 | 0.00 | 60 | 1018.0 |
| 20260905084730 | 75 | 57 | 0.0 | 2.6 | 0.00 | 0.03 | 0.00 | 60 | 1017.9 |
| 20260905083723 | 75 | 57 | 0.0 | 2.6 | 0.00 | 0.03 | 0.00 | 60 | 1018.1 |
| 20260905082733 | 75 | 57 | 1.7 | 2.6 | 0.00 | 0.03 | 0.00 | 59 | 1017.9 |
| 20260905075728 | 76 | 34 | 1.7 | 2.6 | 0.00 | 0.03 | 0.00 | 59 | 1018.0 |
| 20260905074725 | 76 | 335 | 0.0 | 0.9 | 0.00 | 0.03 | 0.00 | 57 | 1018.2 |
| 20260905072728 | 77 | 335 | 0.0 | 1.7 | 0.00 | 0.03 | 0.00 | 56 | 1018.3 |
| 20260905071726 | 77 | 344 | 0.0 | 0.9 | 0.00 | 0.03 | 0.00 | 56 | 1018.4 |
| 20260905070735 | 77 | 344 | 0.0 | 1.7 | 0.00 | 0.03 | 0.00 | 55 | 1018.2 |
| 20260905065721 | 78 | 28 | 0.9 | 1.7 | 0.00 | 0.03 | 0.00 | 55 | 1018.3 |
| 20260905064720 | 78 | 40 | 1.7 | 2.6 | 0.00 | 0.03 | 0.00 | 56 | 1018.1 |
| 20260905062736 | 78 | 33 | 1.7 | 3.5 | 0.00 | 0.03 | 0.00 | 55 | 1018.4 |
| 20260905061731 | 78 | 58 | 1.7 | 4.3 | 0.00 | 0.03 | 0.00 | 55 | 1018.4 |
| 20260905055724 | 78 | 65 | 1.7 | 3.5 | 0.00 | 0.03 | 0.00 | 55 | 1018.4 |
| 20260905054735 | 78 | 42 | 2.6 | 3.5 | 0.00 | 0.03 | 0.03 | 55 | 1018.5 |
| 20260905052721 | 78 | 16 | 2.6 | 6.1 | 0.00 | 0.03 | 0.03 | 54 | 1018.2 |
| 20260905051733 | 78 | 346 | 3.5 | 4.3 | 0.00 | 0.03 | 0.03 | 54 | 1018.3 |
| 20260905050733 | 79 | 351 | 3.5 | 4.3 | 0.00 | 0.03 | 0.03 | 53 | 1018.1 |
| 20260905045727 | 79 | 351 | 3.5 | 4.3 | 0.00 | 0.03 | 0.03 | 53 | 1018.4 |
| 20260905044719 | 79 | 360 | 5.2 | 7.8 | 0.00 | 0.03 | 0.03 | 53 | 1018.3 |
| 20260905043719 | 79 | 10 | 4.3 | 7.0 | 0.00 | 0.03 | 0.03 | 53 | 1018.4 |
| 20260905042732 | 80 | 12 | 3.5 | 6.1 | 0.00 | 0.03 | 0.03 | 53 | 1018.6 |
| 20260905041727 | 80 | 29 | 2.6 | 4.3 | 0.00 | 0.03 | 0.03 | 52 | 1018.5 |
| 20260905034732 | 81 | 65 | 2.6 | 4.3 | 0.00 | 0.03 | 0.03 | 51 | 1018.1 |
| 20260905033721 | 81 | 40 | 2.6 | 4.3 | 0.00 | 0.03 | 0.03 | 51 | 1018.0 |
| 20260905032731 | 81 | 32 | 2.6 | 3.5 | 0.00 | 0.03 | 0.03 | 50 | 1017.9 |
| 20260905031728 | 82 | 13 | 1.7 | 4.3 | 0.00 | 0.03 | 0.03 | 49 | 1017.8 |
| 20260905025720 | 82 | 19 | 1.7 | 6.1 | 0.00 | 0.03 | 0.03 | 48 | 1017.6 |
| 20260905024732 | 82 | 26 | 2.6 | 5.2 | 0.00 | 0.03 | 0.03 | 47 | 1017.5 |
| 20260905022719 | 83 | 360 | 1.7 | 3.5 | 0.00 | 0.03 | 0.03 | 45 | 1017.4 |
| 20260905021733 | 83 | 5 | 1.7 | 4.3 | 0.00 | 0.03 | 0.03 | 44 | 1017.3 |
| 20260905020730 | 83 | 360 | 3.5 | 7.0 | 0.00 | 0.03 | 0.03 | 44 | 1017.2 |
| 20260905015721 | 84 | 300 | 3.5 | 7.8 | 0.00 | 0.03 | 0.03 | 44 | 1017.1 |
| 20260905014719 | 84 | 355 | 3.5 | 5.2 | 0.00 | 0.03 | 0.03 | 43 | 1017.0 |
| 20260905013731 | 84 | 9 | 2.6 | 7.0 | 0.00 | 0.03 | 0.03 | 42 | 1016.7 |
| 20260905012724 | 84 | 314 | 2.6 | 6.1 | 0.00 | 0.03 | 0.03 | 42 | 1016.5 |
| 20260905011717 | 84 | 302 | 3.5 | 7.8 | 0.00 | 0.03 | 0.03 | 42 | 1016.7 |
| 20260905010731 | 85 | 300 | 4.3 | 10.4 | 0.00 | 0.03 | 0.03 | 44 | 1016.4 |
| 20260905005719 | 85 | 280 | 7.0 | 12.2 | 0.00 | 0.03 | 0.03 | 44 | 1016.5 |
| 20260905004733 | 86 | 5 | 8.7 | 10.4 | 0.00 | 0.03 | 0.03 | 43 | 1016.4 |
| 20260905003731 | 87 | 277 | 6.1 | 11.3 | 0.00 | 0.03 | 0.03 | 42 | 1016.3 |
| 20260905002722 | 88 | 333 | 7.8 | 11.3 | 0.00 | 0.03 | 0.03 | 39 | 1016.2 |
| 20260905001719 | 90 | 269 | 3.5 | 7.8 | 0.00 | 0.03 | 0.03 | 34 | 1016.0 |
| 20260905000719 | 90 | 215 | 3.5 | 7.8 | 0.00 | 0.03 | 0.03 | 34 | 1015.9 |
| 20260904235725 | 90 | 283 | 2.6 | 8.7 | 0.00 | 0.03 | 0.03 | 34 | 1015.8 |
| 20260904234719 | 92 | 259 | 6.1 | 8.7 | 0.00 | 0.03 | 0.03 | 33 | 1015.7 |
| 20260904233713 | 92 | 239 | 2.6 | 13.0 | 0.00 | 0.03 | 0.03 | 32 | 1015.7 |
| 20260904231715 | 92 | 275 | 5.2 | 7.8 | 0.00 | 0.03 | 0.03 | 33 | 1015.8 |
| 20260904230725 | 92 | 237 | 4.3 | 9.6 | 0.00 | 0.03 | 0.03 | 34 | 1015.7 |
| 20260904223714 | 93 | 285 | 3.5 | 7.0 | 0.00 | 0.03 | 0.03 | 32 | 1015.7 |
| 20260904222726 | 93 | 23 | 0.9 | 5.2 | 0.00 | 0.03 | 0.03 | 33 | 1015.6 |
| 20260904221731 | 93 | 187 | 5.2 | 8.7 | 0.00 | 0.03 | 0.03 | 33 | 1016.0 |
| 20260904220728 | 93 | 232 | 6.1 | 12.2 | 0.00 | 0.03 | 0.03 | 33 | 1016.0 |
| 20260904215723 | 92 | 253 | 3.5 | 11.3 | 0.00 | 0.03 | 0.03 | 35 | 1016.3 |
| 20260904214714 | 91 | 290 | 3.5 | 8.7 | 0.00 | 0.03 | 0.03 | 35 | 1016.2 |
| 20260904213710 | 91 | 255 | 6.1 | 8.7 | 0.00 | 0.03 | 0.03 | 35 | 1016.5 |
| 20260904211715 | 91 | 317 | 4.3 | 7.8 | 0.00 | 0.03 | 0.03 | 34 | 1016.7 |
| 20260904210722 | 91 | 241 | 7.0 | 9.6 | 0.00 | 0.03 | 0.03 | 35 | 1016.6 |
| 20260904205718 | 91 | 22 | 1.7 | 8.7 | 0.00 | 0.03 | 0.03 | 37 | 1016.9 |
| 20260904203713 | 90 | 181 | 3.5 | 9.6 | 0.00 | 0.03 | 0.03 | 38 | 1017.2 |
| 20260904202727 | 89 | 250 | 0.9 | 7.0 | 0.00 | 0.03 | 0.03 | 38 | 1017.4 |
| 20260904201716 | 89 | 267 | 5.2 | 9.6 | 0.00 | 0.03 | 0.03 | 39 | 1017.5 |
| 20260904200721 | 89 | 221 | 5.2 | 10.4 | 0.00 | 0.03 | 0.03 | 38 | 1017.7 |
| 20260904195716 | 89 | 147 | 3.5 | 9.6 | 0.00 | 0.03 | 0.03 | 39 | 1017.7 |
| 20260904192720 | 88 | 218 | 3.5 | 8.7 | 0.00 | 0.03 | 0.03 | 40 | 1018.1 |
| 20260904191718 | 87 | 142 | 1.7 | 6.1 | 0.00 | 0.03 | 0.03 | 41 | 1018.3 |
| 20260904190714 | 87 | 167 | 3.5 | 8.7 | 0.00 | 0.03 | 0.03 | 44 | 1018.5 |
| 20260904185718 | 85 | 209 | 5.2 | 7.8 | 0.00 | 0.03 | 0.03 | 47 | 1018.7 |
| 20260904184714 | 85 | 267 | 5.2 | 7.8 | 0.00 | 0.03 | 0.03 | 47 | 1018.9 |
| 20260904183709 | 85 | 194 | 4.3 | 7.8 | 0.00 | 0.03 | 0.03 | 48 | 1019.1 |
| 20260904182722 | 84 | 250 | 2.6 | 6.1 | 0.00 | 0.03 | 0.03 | 50 | 1019.3 |
| 20260904181722 | 84 | 274 | 3.5 | 7.8 | 0.00 | 0.03 | 0.03 | 49 | 1019.3 |
| 20260904174721 | 83 | 296 | 3.5 | 6.1 | 0.00 | 0.03 | 0.03 | 53 | 1019.7 |
| 20260904173718 | 82 | 223 | 2.6 | 5.2 | 0.00 | 0.03 | 0.03 | 55 | 1019.9 |
| 20260904172710 | 80 | 211 | 1.7 | 5.2 | 0.00 | 0.03 | 0.03 | 57 | 1019.9 |
| 20260904171717 | 79 | 17 | 1.7 | 5.2 | 0.00 | 0.03 | 0.03 | 59 | 1020.0 |
| 20260904170715 | 79 | 230 | 4.3 | 6.1 | 0.00 | 0.03 | 0.03 | 61 | 1020.1 |
| 20260904165721 | 78 | 244 | 3.5 | 7.0 | 0.00 | 0.03 | 0.03 | 61 | 1020.2 |
| 20260904164711 | 77 | 195 | 0.9 | 6.1 | 0.00 | 0.03 | 0.03 | 63 | 1020.1 |
| 20260904163711 | 77 | 232 | 2.6 | 6.1 | 0.00 | 0.03 | 0.03 | 64 | 1020.0 |